Weather History for KGRD - June, 2013

Change the Weather History Date:

Sunday, June 16, 2013

  Actual Average (KAND) Record (KAND)
Temperature  
Mean Temperature 76 °F -  
Max Temperature 86 °F 88 °F 101 °F (1981)
Min Temperature 66 °F 67 °F 54 °F (1961)
Cooling Degree Days 11    
Growing Degree Days 26 (Base 50)    
Moisture  
Dew Point 65 °F    
Average Humidity 71    
Maximum Humidity 90    
Minimum Humidity 49    
Precipitation  
Precipitation 0.00 in - - ()
Sea Level Pressure  
Sea Level Pressure 30.11 in    
Wind  
Wind Speed 7 mph (SSW)    
Max Wind Speed 13 mph    
Max Gust Speed 18 mph    
Visibility 10 miles    
Events      
Averages and records for this station are not official NWS values.
T = Trace of Precipitation, MM = Missing Value Source: NWS Daily Summary

Daily Weather History Graph

Daily Weather History Graph

Search for Another Location

Airport or City:

Trip Planner

Search our weather history database for the weather conditions in past years. The results will help you decide how hot, cold, wet, or windy it might be!

Date:

Astronomy

Jun. 16, 2013 Rise Set
Actual Time 6:16 AM EDT 8:42 PM EDT
Civil Twilight 5:47 AM EDT 9:11 PM EDT
Nautical Twilight 5:10 AM EDT 9:48 PM EDT
Astronomical Twilight 4:31 AM EDT 10:27 PM EDT
Moon 1:32 PM EDT (6/16) 1:03 AM EDT (6/16)
Length of Visible Light 15h 24m
Length of Day
14h 26m
Waxing Crescent, 49% of the Moon is Illuminated
Jun 16
Waxing Crescent
Jun 16
First Quarter
Jun 23
Full
Jun 30
Last Quarter
Jul 8
New

Hourly Weather History & Observations

Time (EDT) Temp. Heat Index Dew Point Humidity Pressure Visibility Wind Dir Wind Speed Gust Speed Precip Events Conditions
12:56 AM 70.0 °F - 64.0 °F 81% 30.13 in 10.0 mi South 6.9 mph - N/A   Clear
1:56 AM 70.0 °F - 64.0 °F 81% 30.12 in 10.0 mi South 9.2 mph - N/A   Clear
2:56 AM 69.1 °F - 63.0 °F 81% 30.12 in 10.0 mi South 8.1 mph - N/A   Clear
3:56 AM 68.0 °F - 62.1 °F 81% 30.11 in 10.0 mi South 6.9 mph - N/A   Clear
4:56 AM 66.9 °F - 62.1 °F 84% 30.12 in 10.0 mi SSW 5.8 mph - N/A   Clear
5:56 AM 66.0 °F - 62.1 °F 87% 30.14 in 10.0 mi SSW 5.8 mph - N/A   Clear
6:56 AM 66.0 °F - 63.0 °F 90% 30.16 in 10.0 mi SW 3.5 mph - N/A   Clear
7:56 AM 70.0 °F - 64.9 °F 84% 30.17 in 10.0 mi SW 6.9 mph - N/A   Clear
8:56 AM 73.9 °F - 66.9 °F 79% 30.18 in 10.0 mi SW 9.2 mph - N/A   Clear
9:56 AM 75.9 °F - 66.9 °F 74% 30.18 in 10.0 mi SW 12.7 mph 18.4 mph N/A   Partly Cloudy
10:56 AM 79.0 °F - 66.9 °F 66% 30.16 in 10.0 mi WSW 9.2 mph - N/A   Scattered Clouds
11:56 AM 81.0 °F 83.3 °F 66.9 °F 62% 30.15 in 10.0 mi SW 8.1 mph - N/A   Scattered Clouds
12:56 PM 82.9 °F 85.4 °F 66.9 °F 58% 30.12 in 10.0 mi SSW 5.8 mph - N/A   Partly Cloudy
1:56 PM 84.0 °F 85.4 °F 64.0 °F 51% 30.10 in 10.0 mi WSW 9.2 mph - N/A   Mostly Cloudy
2:56 PM 84.9 °F 86.6 °F 64.9 °F 51% 30.09 in 10.0 mi West 10.4 mph - N/A   Scattered Clouds
3:56 PM 82.9 °F 85.0 °F 66.0 °F 56% 30.08 in 10.0 mi WSW 4.6 mph - N/A   Overcast
4:56 PM 86.0 °F 88.2 °F 66.0 °F 51% 30.06 in 10.0 mi South 6.9 mph - N/A   Partly Cloudy
5:56 PM 84.9 °F 86.1 °F 64.0 °F 49% 30.06 in 10.0 mi SW 8.1 mph - N/A   Partly Cloudy
6:56 PM 84.0 °F 85.8 °F 64.9 °F 53% 30.05 in 10.0 mi SSW 4.6 mph - N/A   Clear
7:56 PM 82.0 °F 84.1 °F 66.0 °F 58% 30.04 in 10.0 mi South 6.9 mph - N/A   Clear
8:56 PM 77.0 °F - 66.9 °F 71% 30.04 in 10.0 mi SSW 3.5 mph - N/A   Clear
9:56 PM 73.9 °F - 66.9 °F 79% 30.06 in 10.0 mi SSW 4.6 mph - N/A   Clear
10:56 PM 73.0 °F - 66.9 °F 81% 30.07 in 10.0 mi Calm Calm - N/A   Clear
11:56 PM 73.0 °F - 68.0 °F 84% 30.06 in 10.0 mi South 4.6 mph - N/A   Partly Cloudy